Miscellaneous Local Product
Issued by NWS Hastings, NE

Home | Current Version | Previous Version | Graphics & Text | Print | Product List | Glossary On
Versions: 1 2 3 4 5 6 7 8 9 10 11 12 13 14 15 16 17 18 19 20 21 22 23 24 25 26 27 28 29 30 31 32 33 34 35 36 37 38 39 40 41 42 43 44 45 46 47 48 49 50
178
AXUS43 KGID 101402
MISGRI

GID CWA HOURLY WEATHER ROUNDUP
NATIONAL WEATHER SERVICE HASTINGS NE
800 AM CST WED FEB 10 2016

NOTE: "FAIR" INDICATES FEW OR NO CLOUDS BELOW 12,000 FEET WITH NO
SIGNIFICANT WEATHER AND/OR OBSTRUCTIONS TO VISIBILITY.

...SOUTH CENTRAL NEBRASKA...

CITY           SKY/WX    TMP DP  RH WIND       PRES   REMARKS
GRAND ISLAND   CLOUDY    23  20  88 SW7       29.91F WCI  15
HASTINGS       CLOUDY    27  21  78 SW8       29.92F WCI  19
ORD            CLOUDY    19  17  92 NW3       29.89S
YORK           CLEAR     23  19  86 S12       29.93F WCI  12
AURORA         CLOUDY    23  20  89 SW9       29.92F WCI  13
LEXINGTON      CLOUDY    24  21  89 NW10      29.94F WCI  13
HOLDREGE       CLOUDY    29  23  80 W12       29.94F WCI  19
HEBRON         CLEAR     24  20  82 SW8       29.97F WCI  16

...NEBRASKA PANHANDLE...

CITY           SKY/WX    TMP DP  RH WIND       PRES   REMARKS
CHADRON        CLOUDY    34  24  67 SW9       30.00R WCI  27
ALLIANCE       CLOUDY    30  22  72 W8        30.00R WCI  22
SCOTTSBLUFF    CLEAR     36  25  64 NW13      30.04R WCI  27
SIDNEY         CLOUDY    30  21  69 NW12      30.03F WCI  20

...WESTERN AND NORTH CENTRAL NEBRASKA...

CITY           SKY/WX    TMP DP  RH WIND       PRES   REMARKS
VALENTINE      CLEAR     32  26  78 W9        29.88S WCI  24
AINSWORTH      CLEAR     32  27  81 W7        29.88S WCI  26
ONEILL         CLOUDY    26  24  93 CALM      29.88S
BROKEN BOW     CLEAR     30  24  78 VRB3      29.89F
IMPERIAL       CLOUDY    36  22  56 W16       30.01F WCI  26
NORTH PLATTE   CLEAR     28  22  78 W10       29.96F WCI  19
MCCOOK         CLOUDY    29  23  78 W12       29.99F WCI  19

...EASTERN NEBRASKA...

CITY           SKY/WX    TMP DP  RH WIND       PRES   REMARKS
NORFOLK        PTCLDY    24  20  84 S5        29.91F WCI  18
SO SIOUX CITY  CLOUDY    24  17  74 SE12      29.98F WCI  13
TEKAMAH        CLOUDY    39  19  44 SE13      29.99F WCI  31
COLUMBUS       CLOUDY    25  12  58 S6        29.94S WCI  18
ALBION         CLOUDY    22  20  89 CALM      29.90F
OMAHA EPPLEY   CLOUDY    26  19  74 S13       30.00F WCI  15
OFFUTT AFB     CLOUDY    26  19  73 SE9       30.00F WCI  17
MILLARD        CLOUDY    27  19  74 SE6       30.01F WCI  20
LINCOLN        PTCLDY    27  17  66 S12       29.97F WCI  17
NEBRASKA CITY  CLOUDY    27  17  68 S12       30.01F WCI  16
BEATRICE       CLEAR     26  16  66 S10       29.99F WCI  15
FALLS CITY     CLOUDY    27  14  58 S9        30.05F WCI  18

...NORTHERN KANSAS...

CITY           SKY/WX    TMP DP  RH WIND       PRES   REMARKS
GOODLAND       CLOUDY    35  19  52 W13       30.07S WCI  26
HILL CITY      CLEAR     35  25  66 W12       30.01F WCI  27
NORTON         SUNNY     34  21  60 W13       29.97F WCI  25
PHILLIPSBURG   CLEAR     28  23  80 CALM      29.99F
SMITH CENTER   CLEAR     23  21  93 CALM      29.99F
BELOIT         CLEAR     25  21  86 SW5       30.00F WCI  19
HAYS           CLEAR     34  19  55 W12       30.02F WCI  25
RUSSELL        CLEAR     30  26  85 SW9       30.01F WCI  22
CONCORDIA      CLEAR     27  20  75 SW15      29.99F WCI  15
SALINA         CLEAR     29  20  69 S15       30.06F WCI  18
TOPEKA         CLEAR     25  14  63 S5        30.11F WCI  19



USA.gov is the U.S. government's official web portal to all federal, state and local government web resources and services.